Regional Weather Roundup
Issued by NWS Lake Charles, LA

Current Version | Previous Version | Text Only | Print | Product List | Glossary On
Versions: 1 2 3 4 5 6 7 8 9 10 11 12 13 14 15 16 17 18 19 20 21 22 23 24 25 26
000
ASUS44 KLCH 242110
RWRLCH
REGIONAL WEATHER ROUNDUP
NATIONAL WEATHER SERVICE LAKE CHARLES LA
400 PM CDT FRI JUN 24 2016

Note: "fair" indicates few or no clouds below 12,000 feet with no
significant weather and/or obstructions to visibility.


ACROSS SOUTHEAST TEXAS

CITY           SKY/WX    TMP DP  RH WIND       PRES   REMARKS
BEAUMONT       MOSUNNY   87  76  69 NW7       30.04F
BEAUMONT CITY  CLOUDY    84  75  74 E7        30.05F
ORANGE         MOCLDY    84  73  70 NW3       30.06F
JASPER         MOSUNNY   90  67  47 SE5       30.06F
$$

ACROSS CENTRAL LOUISIANA

CITY           SKY/WX    TMP DP  RH WIND       PRES   REMARKS
LEESVILLE      MOSUNNY   90  70  51 S8        30.04F
FULLERTON      MOCLDY    89  69  51 VRB3      30.02F
ALEXANDRIA INT SUNNY     91  70  49 VRB3      30.03F
ESLER FIELD    SUNNY     94  72  48 SW6       30.05F HX 102
DERIDDER       FAIR      91  67  44 SE3       30.06F
OAKDALE        PTCLDY    89  73  60 CALM      30.05F
OPELOUSAS      FAIR      88  73  61 CALM      30.05F
$$

ACROSS SOUTHWEST AND SOUTH CENTRAL LOUISIANA

CITY           SKY/WX    TMP DP  RH WIND       PRES   REMARKS
SULPHUR        CLEAR     89  74  60 S9        30.06F
LAKE CHARLES   CLOUDY    85  75  72 VRB5      30.05F
CHENNAULT INT  PTSUNNY   90  73  58 SE6       30.05F
CAMERON PHI    NOT AVBL
DEQUINCY       MOCLDY    88  70  55 S8        30.05F
JENNINGS       CLOUDY    84  75  74 W9        30.05F
LAFAYETTE      PTSUNNY   91  69  48 CALM      30.05F
NEW IBERIA     PTSUNNY   90  71  53 SW6       30.06F
ABBEVILLE      MOCLDY    89  72  56 S9        30.06F
PATTERSON      MOSUNNY   90  72  55 SW6       30.06F
SALT POINT       N/A     90  68  48 VRB3      30.06
$$

SELECTED SITES ACROSS THE REGION

CITY           SKY/WX    TMP DP  RH WIND       PRES   REMARKS
HOUSTON BUSH   LGT RAIN  82  75  79 S8        30.02S
HOUSTON HOBBY  LGT RAIN  84  78  82 SW10      30.02F
GALVESTON      SUNNY     86  77  74 S13       30.04F
COLLEGE STAT   MOSUNNY   93  67  42 SE16      30.01F
CONROE         PTSUNNY   88  72  58 SE8       30.03F
HUNTSVILLE     SUNNY     94  67  41 VRB3      30.02F
LUFKIN         PTSUNNY   92  69  47 S10       30.02F
SHREVEPORT     MOSUNNY   94  69  44 SW8       30.02F
MONROE         MOSUNNY   89  73  59 S5        30.04F
NATCHEZ MS     NOT AVBL
BATON ROUGE    MOSUNNY   92  67  43 E6        30.04F
N.O. INTL ARPT MOSUNNY   91  68  46 CALM      30.06F
SLIDELL        SUNNY     91  68  46 CALM      30.05F
$$

MARINE REPORTS

STATION/POSITION TIME  SKY/WX   TEMP    WIND        PRES    VSBY
                                AIR SEA DIR/SP/G
                 (UTC)          (F)     (DEG/KT/KT) (MB)    (MI)
BUOY 30 S HIGH I 2050            85 87  170/ 10/ 12 1016.9F
WVE H/P(F/S)=  2/ 5

SEA RIM ST PARK  2100            85     180/  8/ 10 1017.9F
PORT ARTHUR      2000               85  150/  8/ 12 1018.0F
SABINE PASS N    2000            86 87  170/  8/ 14 1019.4F
TEXAS POINT      NOT AVBL
CALCASIEU PASS   2000            84 88  170/  8/ 14 1017.7F
LK CHARLES BEACH 2000            86 83              1018.7F
MARSH ISLAND     2000            87                   N/A
FRESH WATER LOCK 2000            85 87  160/  8/ 11 1019.3F
AMERADA PASS     2000            89 88  190/  1/  4 1018.5F
$$




USA.gov is the U.S. government's official web portal to all federal, state and local government web resources and services.